#timestamp,LO_Frequency,Hit 
1504785615.4,286046998.3,N
1504785635.2,286046996.5,N
1504785655.0,286046998.2,N
1504785655.9,286046998.2,N
1504785675.7,286046998.8,N
1504785695.6,286046997.5,N
1504785715.4,286046997.3,N
1504785735.2,286046997.1,N
1504785755.1,286046997.5,N
1504785756.0,286046997.5,N
1504785775.8,286046998.0,N
1504785795.6,286046996.2,N
1504785815.5,286046991.9,P
1504785835.3,286046996.1,N
1504785855.1,286046993.6,N
1504785875.9,286046995.4,N
1504785895.7,286046994.7,N
1504785915.5,286046994.0,N
1504785935.4,286046996.8,N
1504785955.2,286047002.7,N
1504785975.0,286047000.4,N
1504785975.9,286047000.4,N
1504785995.8,286046999.8,N
1504786015.6,286046999.9,N
1504786035.4,286047000.0,N
1504786055.3,286046998.6,N
1504786075.1,286046999.1,N
1504786076.0,286046999.1,N
1504786095.8,286047000.0,N
1504786115.7,286046998.9,N
1504786135.5,286046998.8,N
1504786155.3,286046999.1,N
1504786175.1,286046999.2,N
1504786195.9,286046996.6,N
1504786215.7,286046999.5,N
1504786235.5,286047000.0,N
1504786255.4,286047000.4,N
1504786275.2,286046998.4,N
1504786295.0,286046998.7,N
1504786295.9,286046998.7,N
1504786315.8,286047000.3,N
1504786335.9,286046998.2,N
1504786355.7,286046997.1,N
1504786375.5,286047001.2,N
1504786395.4,286046996.5,N
1504786415.2,286046997.4,N
1504786435.0,286046997.2,N
1504786435.9,286046997.2,N
1504786455.8,286046994.9,P
1504786475.6,286046996.2,N
1504786495.4,286046993.3,P
1504786515.3,286046998.0,N
1504786535.1,286046996.9,N
1504786555.8,286046995.1,N
1504786575.7,286046996.6,N
1504786595.5,286046997.6,N
1504786615.3,286046996.6,N
1504786635.2,286046996.8,N
1504786655.9,286046997.2,N
1504786675.7,286046997.8,N
1504786695.6,286046995.0,P
1504786715.4,286046998.6,N
1504786735.2,286047001.6,N
1504786755.1,286047001.6,N
1504786756.0,286047001.6,N
1504786775.8,286047004.2,N
1504786795.6,286047004.0,N
1504786815.5,286047003.5,N
1504786835.3,286047003.4,N
1504786855.1,286047003.7,N
1504786875.9,286047005.5,N
1504786895.7,286047003.8,N
1504786915.5,286047001.4,N
1504786935.3,286047002.6,N
1504786955.2,286047000.6,N
1504786975.0,286046999.7,N
1504786975.9,286046999.7,N
1504786995.7,286047000.6,N
1504787015.6,286047000.5,N
1504787035.4,286047001.9,N
1504787055.2,286047001.8,N
1504787075.1,286047003.5,N
1504787076.0,286047003.5,N
1504787095.8,286047003.8,N
1504787115.6,286046999.8,N
1504787135.5,286047005.5,N
1504787155.3,286047001.8,N
1504787175.1,286047004.2,N
1504787195.9,286047003.9,N
1504787215.7,286047004.1,N
1504787235.5,286047005.7,N
1504787255.4,286047004.0,N
1504787275.2,286047000.2,N
1504787295.0,286047000.2,N
1504787295.9,286047000.2,N
1504787315.8,286047002.3,N
1504787335.6,286047000.0,N
1504787355.4,286046998.3,N
1504787375.2,286046998.2,N
1504787395.1,286047002.2,N
1504787396.0,286047002.2,N
1504787415.8,286047000.8,N
1504787435.6,286047001.1,N
1504787455.5,286047002.6,N
1504787475.3,286047002.3,N
1504787495.1,286047002.3,N
1504787515.9,286047001.6,N
1504787535.7,286047002.6,N
1504787555.5,286047002.2,N
1504787575.4,286047001.3,N
1504787595.2,286047002.1,N
1504787615.0,286046998.5,N
1504787615.9,286046998.5,N
1504787635.8,286046999.6,N
1504787655.6,286046997.4,N
1504787675.4,286046995.4,N
1504787695.3,286046997.5,N
1504787715.1,286046997.5,N
1504787716.0,286046997.5,N
1504787735.8,286046997.5,N
1504787755.7,286046996.6,N
1504787775.5,286046998.1,N
1504787795.3,286047001.0,N
1504787815.1,286047000.7,N
1504787835.9,286046999.4,N
1504787855.7,286046997.0,N
1504787875.5,286047001.0,N
1504787895.4,286047002.7,N
1504787915.2,286047000.1,N
1504787935.0,286046997.0,N
1504787935.9,286046997.0,N
1504787955.8,286046996.5,N
1504787975.6,286046999.6,N
1504787995.4,286046999.6,N
1504788015.3,286046999.6,N
1504788035.1,286046997.5,N
1504788036.0,286046997.5,N
1504788055.8,286046998.5,N
1504788075.7,286046999.1,N
1504788095.5,286046999.3,N
1504788115.3,286046997.9,N
1504788135.2,286046995.4,N
1504788155.9,286046995.0,N
1504788175.7,286046995.4,N
1504788195.6,286046997.9,N
1504788215.4,286046997.8,N
1504788235.2,286047001.2,N
1504788255.1,286047001.5,N
1504788256.0,286047001.5,N
1504788275.8,286046998.1,N
1504788295.6,286046999.0,N
1504788315.5,286047000.0,N
1504788335.3,286047000.6,N
1504788355.1,286046998.2,N
1504788375.8,286046996.6,N
1504788395.7,286046996.9,N
1504788415.5,286046999.5,N
1504788435.3,286047001.0,N
1504788455.2,286046999.9,N
1504788475.9,286046998.8,N
1504788495.7,286046999.2,N
1504788515.6,286046997.1,N
1504788535.4,286046997.8,N
1504788555.2,286046999.4,N
1504788575.1,286046997.5,N
1504788576.0,286046997.5,N
1504788595.8,286046996.8,N
1504788615.6,286046998.0,N
1504788635.5,286046997.6,N
1504788655.3,286046998.3,N
1504788675.1,286047000.1,N
1504788695.9,286047002.4,N
1504788715.7,286046999.7,N
1504788735.5,286046998.6,N
1504788755.3,286046999.2,N
1504788775.2,286046996.6,N
1504788795.0,286046996.5,N
1504788795.9,286046996.5,N
1504788815.7,286046997.1,N
1504788835.6,286046994.9,P
1504788855.4,286046996.6,N
1504788875.2,286046997.0,N
1504788895.1,286046996.7,N
1504788896.0,286046996.7,N
1504788915.8,286046999.1,N
1504788935.6,286046998.4,N
1504788955.5,286047000.7,N
1504788975.3,286046999.6,N
1504788995.1,286047000.5,N
1504789015.9,286046998.8,N
1504789035.7,286046999.2,N
1504789055.5,286046997.6,N
1504789075.4,286046996.4,N
1504789095.2,286046993.4,P
1504789115.0,286046994.9,N
1504789115.9,286046994.9,N
1504789135.8,286046997.6,N
1504789155.6,286046993.6,P
1504789175.4,286047000.4,N
1504789195.3,286047002.4,N
